CAPE
0 0 0 0 0 0 0 0 0 0 0 0 0 0 0 0 0 0 0 1 2 0 0 2 8 0 0 89 112 11 7 1 3 3 2 4 5 4 5 4 5 5 6 13 6 6 4 2 3
0 0 0 0 0 0 0 0 0 0 13 0 0 0 0 0 0 0 1 2 0 0 4 5 34 42 19 27 55 61 11 4 2 2 3 6 6 5 5 1 4 3 9 6 6 4 5 2 0
0 0 0 0 0 0 0 0 0 0 0 0 0 0 6 0 0 0 1 5 0 2 14 2 0 10 98 8 108 72 12 1 1 2 3 4 2 5 3 5 6 7 6 4 4 4 3 0 0
0 0 0 0 0 0 0 0 0 4 0 0 18 0 0 0 0 0 3 0 0 6 11 0 25 83 156 134 112 69 1 0 0 2 4 5 4 1 2 2 5 3 1 1 2 2 1 0 0
0 0 0 0 0 0 0 0 7 19 21 29 0 8 0 0 0 2 1 0 4 11 10 45 69 185 183 144 59 68 0 0 0 2 3 2 8 0 0 0 0 0 0 0 0 0 0 0 0
0 0 0 0 0 0 0 0 19 28 29 7 0 0 0 0 0 1 0 0 3 8 11 63 43 82 93 65 57 36 0 0 1 8 10 7 1 0 0 0 0 0 0 0 0 0 0 0 0
0 0 0 0 0 0 0 0 21 84 71 54 2 0 0 0 1 1 0 0 1 6 5 32 64 37 27 29 11 2 0 0 0 0 0 0 0 0 0 0 0 0 0 0 0 0 0 0 0
0 0 0 0 0 0 0 0 0 85 93 3 17 2 3 0 2 6 0 0 2 3 2 17 39 65 30 0 0 0 0 0 0 0 0 0 0 0 0 0 0 0 0 0 0 0 0 0 0
0 0 0 0 0 0 0 0 0 0 49 36 3 0 0 0 4 4 2 0 5 2 4 3 6 20 30 6 0 0 0 0 0 0 0 0 0 0 0 0 0 0 0 0 0 0 0 0 0
1 3 0 0 0 0 0 0 0 0 20 34 23 0 0 1 2 2 0 0 3 4 7 2 0 0 0 0 0 0 0 0 0 0 0 0 0 0 0 0 0 0 0 0 0 0 0 0 0
3 8 2 0 0 0 0 0 0 0 2 13 53 58 0 1 1 1 0 0 5 9 6 5 0 0 0 0 0 0 0 0 0 0 0 0 0 0 0 2 8 8 2 27 13 0 0 0 0
8 5 1 1 0 0 0 0 0 0 0 5 24 69 0 2 1 1 0 1 2 7 3 2 0 0 0 0 0 0 0 0 0 0 0 0 0 1 6 16 18 24 17 16 1 0 0 0 0
13 13 10 1 0 0 0 0 0 0 0 0 3 6 0 0 3 3 1 3 5 4 4 4 0 0 0 0 0 0 0 0 2 2 2 1 4 6 16 21 3 0 0 0 0 0 0 0 0
0 10 11 20 7 2 0 0 0 0 0 0 0 4 0 0 3 2 2 1 2 1 1 2 2 0 0 0 0 0 1 11 11 14 6 1 7 12 17 0 0 0 0 0 0 0 0 0 0
6 0 0 0 4 9 4 0 0 0 0 0 0 0 5 22 2 3 0 0 0 2 1 3 4 0 0 0 0 0 7 11 23 24 14 15 20 18 0 0 0 0 0 0 0 0 0 0 0
1 3 0 0 0 15 1 0 0 0 0 0 0 0 0 1 1 3 2 0 0 1 1 2 5 3 0 0 0 4 13 21 4 4 0 1 2 0 0 0 0 0 0 0 0 0 0 0 0
0 0 0 2 7 33 27 2 5 5 0 0 0 0 0 1 3 2 2 1 3 3 0 2 2 2 0 0 1 17 0 0 0 0 0 0 0 0 0 0 0 0 0 0 0 0 0 0 0
0 0 0 0 0 31 19 20 11 25 4 0 0 9 0 0 1 3 2 0 4 4 0 2 7 5 3 0 1 0 0 0 0 0 0 0 0 0 0 0 0 0 0 0 0 0 0 0 0
2 8 12 5 9 7 0 10 11 33 21 1 0 1 10 17 7 3 4 4 4 6 7 10 6 10 4 0 0 0 0 0 0 0 0 0 0 0 0 0 0 0 0 0 0 0 0 0 0
0 5 6 8 2 0 0 0 0 0 0 18 2 22 19 33 14 1 4 3 1 1 2 2 3 6 0 0 0 0 0 0 0 0 0 0 0 0 0 0 0 0 0 0 0 0 0 0 0
0 0 0 7 0 0 15 0 1 0 0 0 0 0 15 30 19 0 1 0 0 1 0 0 2 1 0 0 0 0 0 0 0 0 0 0 0 0 0 0 0 0 0 0 0 0 0 0 0
3 0 0 0 12 7 15 0 0 0 0 0 0 0 21 40 15 9 0 2 0 0 0 0 1 0 0 0 0 0 0 0 0 0 0 0 0 0 0 0 0 0 0 0 0 0 0 0 0
0 0 0 1 7 0 0 11 0 0 0 0 0 0 10 47 9 16 0 0 0 0 0 1 2 1 0 0 0 0 0 0 0 0 0 0 0 0 0 0 0 0 0 0 0 0 0 0 0
4 9 5 8 7 0 0 2 0 0 0 0 0 0 43 59 14 17 0 0 1 1 1 0 0 1 0 0 0 0 0 0 0 0 0 0 6 3 0 0 0 0 0 0 0 0 0 0 0
6 8 1 0 0 0 0 9 0 0 0 0 0 0 6 57 5 0 0 0 0 0 0 0 0 0 0 0 0 0 0 0 0 0 0 0 3 0 0 0 0 0 0 0 0 0 0 0 0
0 1 0 5 0 3 31 13 1 0 0 0 0 0 10 1 0 0 0 0 0 0 0 1 1 1 1 0 0 0 0 0 0 0 3 5 0 0 0 0 0 0 0 0 0 0 0 0 0
0 0 0 0 0 0 2 3 45 0 0 0 0 0 23 0 0 0 0 0 0 1 2 2 7 9 6 4 1 4 2 4 3 3 2 0 0 0 0 0 0 0 0 0 0 0 0 0 0
2 0 0 0 0 3 0 2 50 0 0 0 0 0 6 0 2 1 1 0 5 4 8 5 4 5 4 3 3 3 1 2 4 1 0 0 0 0 0 0 0 0 0 0 0 0 0 0 0
1 0 0 0 1 6 3 36 1 2 0 0 0 1 0 1 1 5 6 5 5 6 4 3 3 3 3 2 1 2 3 5 2 0 0 0 0 0 0 0 0 0 0 0 0 0 0 0 0
0 1 1 0 0 0 0 0 0 1 2 2 0 1 3 3 6 6 5 5 5 5 4 3 3 3 3 2 0 3 2 0 0 0 0 0 0 0 0 0 0 0 0 0 0 0 0 0 0
CIN
-0 -0 -0 -0 -0 -0 -0 -0 -0 -0 -0 -0 -0 -0 -0 -0 -0 -0 -0 -0 -1 -0 -0 -0 -2 -0 -0 -18 -14 -2 -1 -1 -0 -0 -0 -1 -0 -1 -0 -0 -0 -0 -0 -2 -1 -0 -0 -0 -0
-0 -0 -0 -0 -0 -0 -0 -0 -0 -0 -62 -0 -0 -0 -0 -6 -0 -0 -0 -0 -0 -0 -1 -0 -69 -43 -33 -16 -1 -3 -3 -0 -0 -0 -0 -0 -0 -0 -0 -0 -0 -1 -1 -0 -0 -0 -0 -0 -0
-0 -0 -0 -0 -0 -0 -0 -0 -0 -0 -0 -0 -0 -0 -90 -5 -0 -0 -1 -0 -0 -0 -1 -1 -0 -31 -8 -47 -2 -1 -3 -3 -0 -0 -0 -0 -0 -0 -0 -0 -0 -0 -0 -0 -0 -0 -0 -0 -0
-0 -0 -0 -0 -0 -0 -0 -0 -0 -63 -0 -0 -149 -0 -0 -0 -0 -0 -0 -0 -0 -1 -1 -0 -99 -21 -1 -1 -1 -2 -1 -0 -0 -0 -0 -0 -0 -0 -0 -0 -0 -0 -0 -0 -0 -0 -0 -0 -0
-0 -0 -0 -0 -0 -0 -0 -0 -56 -45 -48 -85 -0 -73 -0 -0 -0 -1 -0 -0 -0 -0 -0 -103 -59 -2 -1 -2 -17 -2 -0 -0 -0 -0 -0 -0 -0 -0 -0 -0 -0 -0 -0 -0 -0 -0 -0 -0 -0
-0 -0 -0 -1 -0 -0 -0 -0 -52 -35 -53 -16 -0 -0 -0 -0 -0 -0 -0 -0 -0 -1 -0 -77 -94 -56 -36 -38 -27 -18 -0 -0 -0 -1 -0 -1 -0 -0 -0 -0 -0 -0 -0 -0 -0 -0 -0 -0 -0
-0 -0 -0 -0 -0 -0 -0 -0 -42 -32 -36 -64 -18 -0 -0 -0 -0 -1 -0 -0 -4 -0 -0 -0 -54 -93 -85 -51 -8 -2 -3 -0 -0 -0 -0 -0 -0 -0 -0 -0 -0 -0 -0 -0 -0 -0 -0 -0 -0
-0 -0 -0 -0 -0 -0 -0 -0 -0 -31 -29 -35 -126 -1 -26 -0 -0 -0 -1 -0 -6 -0 -0 -0 -13 -43 -73 -0 -0 -0 -0 -0 -0 -0 -0 -0 -0 -0 -0 -0 -0 -0 -0 -0 -0 -0 -0 -0 -0
-0 -0 -0 -0 -0 -0 -0 -0 -0 -0 -63 -112 -46 -0 -0 -0 -0 -0 -1 -1 -1 -1 -1 -1 -0 -0 -0 -0 -0 -0 -0 -0 -0 -0 -0 -0 -0 -0 -0 -0 -0 -0 -0 -0 -0 -0 -0 -0 -0
-0 -1 -0 -0 -0 -0 -0 -0 -0 -0 -55 -69 -124 -0 -0 -0 -0 -0 -0 -0 -0 -1 -0 -1 -0 -0 -0 -0 -0 -0 -0 -0 -0 -0 -0 -0 -0 -0 -0 -0 -0 -0 -0 -0 -0 -0 -0 -0 -0
-1 -0 -1 -0 -0 -0 -0 -0 -0 -0 -7 -41 -58 -165 -117 -0 -0 -0 -0 -0 -0 -0 -0 -0 -0 -0 -0 -0 -0 -0 -0 -0 -0 -0 -0 -0 -0 -0 -0 -0 -0 -0 -15 -1 -1 -0 -0 -0 -0
-0 -1 -1 -0 -0 -0 -0 -0 -0 -0 -0 -125 -108 -108 -0 -0 -0 -0 -0 -0 -1 -0 -0 -0 -0 -0 -0 -0 -0 -0 -0 -0 -0 -0 -0 -0 -0 -0 -0 -0 -0 -0 -11 -9 -7 -0 -0 -0 -0
-0 -0 -0 -1 -0 -0 -0 -0 -0 -0 -0 -0 -102 -160 -57 -0 -0 -0 -1 -1 -1 -1 -0 -0 -0 -0 -0 -0 -0 -0 -0 -0 -0 -0 -0 -0 -0 -0 -0 -0 -3 -13 -0 -0 -0 -0 -0 -0 -0
-0 -3 -2 -1 -0 -1 -0 -0 -0 -0 -0 -0 -0 -159 -110 -0 -0 -0 -0 -0 -0 -1 -0 -0 -1 -0 -0 -0 -0 -0 -1 -0 -0 -0 -0 -0 -0 -2 -0 -0 -0 -0 -0 -0 -0 -0 -0 -0 -0
-0 -0 -0 -0 -1 -0 -0 -0 -0 -0 -0 -0 -0 -0 -267 -266 -0 -0 -0 -0 -0 -1 -0 -0 -0 -1 -0 -0 -0 -0 -1 -0 -0 -0 -0 -0 -11 -12 -2 -1 -0 -0 -0 -0 -0 -0 -0 -0 -0
-0 -0 -0 -0 -0 -1 -1 -0 -0 -0 -0 -0 -0 -0 -0 -37 -0 -0 -0 -0 -0 -0 -0 -0 -0 -0 -0 -0 -0 -0 -0 -0 -10 -20 -0 -19 -30 -0 -0 -0 -0 -0 -0 -0 -0 -0 -0 -0 -0
-0 -0 -0 -0 -2 -1 -2 -1 -1 -1 -0 -0 -0 -0 -0 -149 -0 -0 -0 -0 -0 -0 -0 -0 -0 -0 -0 -0 -1 -0 -0 -0 -0 -0 -0 -0 -0 -0 -0 -0 -0 -0 -0 -0 -0 -0 -0 -0 -0
-0 -0 -0 -0 -0 -7 -1 -1 -2 -2 -0 -0 -0 -91 -0 -0 -0 -0 -0 -0 -0 -0 -0 -1 -0 -0 -0 -0 -0 -0 -0 -0 -0 -0 -0 -0 -0 -0 -0 -0 -0 -0 -0 -0 -0 -0 -0 -0 -0
-1 -1 -1 -1 -16 -7 -0 -0 -14 -3 -2 -2 -0 -18 -108 -204 -254 -0 -0 -0 -0 -0 -1 -0 -0 -0 -0 -0 -0 -0 -0 -0 -0 -0 -0 -0 -0 -0 -0 -0 -0 -0 -0 -0 -0 -0 -0 -0 -0
-0 -2 -0 -0 -2 -0 -0 -0 -0 -0 -0 -3 -1 -33 -75 -164 -239 -0 -0 -0 -0 -0 -0 -0 -1 -0 -0 -0 -0 -0 -0 -0 -0 -0 -0 -0 -0 -0 -0 -0 -0 -0 -0 -0 -0 -0 -0 -0 -0
-0 -0 -0 -1 -0 -0 -0 -0 -0 -0 -0 -0 -0 -1 -33 -116 -194 -0 -0 -0 -1 -0 -0 -0 -0 -1 -0 -0 -0 -0 -0 -0 -0 -0 -0 -0 -0 -0 -0 -0 -0 -0 -0 -0 -0 -0 -0 -0 -0
-0 -0 -0 -0 -0 -0 -4 -0 -0 -0 -0 -0 -0 -0 -3 -52 -133 -267 -0 -0 -0 -0 -0 -0 -0 -0 -0 -0 -0 -0 -0 -0 -0 -0 -0 -0 -0 -0 -0 -0 -0 -0 -0 -0 -0 -0 -0 -0 -0
-0 -0 -0 -1 -4 -0 -0 -1 -0 -0 -0 -0 -0 -0 -9 -5 -111 -214 -77 -0 -0 -0 -0 -0 -0 -0 -0 -0 -0 -0 -0 -0 -0 -0 -0 -0 -0 -0 -0 -0 -0 -0 -0 -0 -0 -0 -0 -0 -0
-0 -0 -1 -2 -6 -0 -0 -0 -0 -1 -0 -0 -0 -0 -10 -1 -63 -147 -0 -0 -0 -0 -0 -0 -0 -0 -0 -0 -0 -0 -0 -0 -0 -0 -0 -0 -0 -0 -0 -0 -0 -0 -0 -0 -0 -0 -0 -0 -0
-1 -0 -1 -0 -0 -0 -0 -6 -0 -0 -0 -0 -0 -0 -13 -2 -55 -0 -0 -0 -0 -0 -0 -0 -0 -0 -0 -0 -0 -0 -0 -0 -0 -0 -0 -0 -0 -0 -0 -0 -0 -0 -0 -0 -0 -0 -0 -0 -0
-0 -0 -0 -3 -0 -2 -30 -3 -6 -0 -0 -0 -0 -0 -85 -91 -0 -0 -0 -0 -0 -0 -0 -0 -0 -0 -0 -0 -0 -0 -0 -0 -0 -0 -0 -0 -0 -0 -0 -0 -0 -0 -0 -0 -0 -0 -0 -0 -0
-0 -0 -0 -0 -0 -0 -3 -29 -86 -0 -0 -0 -0 -0 -61 -0 -0 -0 -0 -0 -0 -0 -0 -0 -0 -0 -0 -0 -0 -0 -0 -0 -0 -0 -0 -0 -0 -0 -0 -0 -0 -0 -0 -0 -0 -0 -0 -0 -0
-4 -0 -0 -0 -0 -1 -1 -24 -27 -0 -0 -0 -0 -0 -44 -0 -0 -0 -0 -0 -0 -0 -0 -0 -0 -0 -0 -0 -0 -0 -0 -0 -0 -0 -0 -0 -0 -0 -0 -0 -0 -0 -0 -0 -0 -0 -0 -0 -0
-1 -0 -0 -0 -0 -1 -5 -10 -0 -0 -0 -0 -0 -1 -0 -0 -0 -0 -0 -0 -0 -0 -0 -0 -0 -0 -0 -0 -0 -0 -0 -0 -0 -0 -0 -0 -0 -0 -0 -0 -0 -0 -0 -0 -0 -0 -0 -0 -0
-0 -0 -0 -0 -0 -4 -0 -3 -0 -0 -0 -0 -0 -0 -0 -0 -0 -0 -0 -0 -0 -0 -0 -0 -0 -0 -0 -0 -0 -0 -0 -0 -0 -0 -0 -0 -0 -0 -0 -0 -0 -0 -0 -0 -0 -0 -0 -0 -0
Wind_Speed
23 18 15 12 21 22 25 20 19 13 11 12 6 15 15 16 15 16 10 8 14 18 18 18 21 16 17 13 16 15 14 13 14 15 15 15 15 14 13 13 14 15 17 18 19 19 20 20 20
23 17 14 14 23 24 24 21 19 15 11 6 7 12 16 18 15 12 8 4 17 14 16 16 13 15 17 16 16 18 15 14 14 16 16 16 15 14 13 14 15 17 18 19 20 20 20 20 20
20 17 18 20 22 27 24 21 19 16 6 10 13 17 16 17 14 7 10 10 12 13 12 10 13 18 19 18 16 15 12 12 13 13 13 13 13 13 13 14 15 17 18 19 19 20 21 21 21
20 15 16 23 21 26 23 19 17 13 16 14 15 15 16 17 11 5 6 9 9 7 8 6 7 12 15 16 13 13 11 10 11 11 11 11 12 12 13 14 15 16 17 18 19 20 21 21 21
18 17 25 25 27 21 23 22 17 17 19 16 12 18 17 13 10 6 9 9 7 7 4 4 4 6 14 14 13 12 10 9 11 11 11 11 12 13 13 14 14 15 17 18 19 20 21 21 22
19 18 27 30 27 24 25 21 19 19 19 17 18 17 17 11 5 7 10 9 7 7 6 4 5 8 11 11 12 12 9 9 10 10 10 10 11 12 13 14 15 15 17 18 19 20 21 21 22
23 23 29 28 28 27 25 15 20 21 19 21 19 19 16 8 3 7 8 8 7 5 5 4 6 7 9 10 10 9 7 8 8 8 8 9 9 10 11 12 14 15 16 17 18 19 20 21 22
23 24 27 26 27 29 22 20 22 23 21 19 15 21 22 6 1 6 6 5 6 5 4 4 4 8 8 7 7 7 8 8 8 8 8 9 9 10 11 12 12 13 15 16 18 19 20 21 22
22 28 31 25 22 23 21 23 21 22 22 20 17 20 19 2 3 5 6 5 4 4 4 3 3 3 3 4 5 6 6 6 7 6 6 7 8 9 10 10 12 13 15 16 18 19 20 21 22
22 28 31 27 25 24 23 27 26 25 23 25 23 20 13 3 5 6 8 7 7 7 7 5 6 5 4 2 2 2 3 5 5 5 6 6 7 8 9 10 11 12 14 16 17 19 20 22 23
24 31 30 32 29 27 27 28 27 29 27 26 27 18 11 8 7 7 8 9 9 9 7 6 6 7 6 7 4 3 2 2 3 4 4 5 6 7 8 9 10 12 14 16 17 20 22 23 23
35 29 34 31 28 29 30 28 29 31 34 22 26 18 12 10 9 10 9 9 10 10 10 8 7 7 8 8 8 6 4 2 2 3 4 6 6 7 8 9 11 12 15 17 18 20 21 22 22
32 33 32 33 32 35 40 38 38 35 34 31 27 17 14 12 13 11 10 10 10 11 11 11 10 9 8 8 7 6 5 4 5 4 6 6 7 8 9 10 12 14 16 17 18 19 21 21 22
30 32 34 34 35 34 37 39 33 35 36 32 26 23 18 17 14 13 11 11 12 12 13 12 11 10 9 9 8 7 6 6 6 7 6 7 8 9 9 11 13 15 16 17 19 20 20 20 20
35 43 42 35 33 34 35 56 36 32 31 32 30 25 21 21 18 16 13 12 12 13 13 14 13 12 11 9 8 7 7 8 9 9 9 9 10 9 11 13 15 16 17 18 18 20 20 20 19
34 38 49 37 35 32 30 63 38 31 34 35 32 28 25 25 23 20 21 16 13 12 13 14 14 12 11 11 9 8 8 9 10 10 10 10 10 11 11 13 15 16 17 18 20 20 21 20 19
34 48 44 40 32 35 36 54 38 32 31 34 34 32 29 28 26 23 21 18 16 14 14 15 14 13 11 10 9 9 8 9 10 10 10 11 11 12 12 14 16 17 17 18 19 21 21 21 21
39 44 44 48 37 35 48 55 44 37 33 36 34 32 32 30 29 24 22 21 18 17 15 14 15 14 12 10 10 10 9 10 11 11 12 12 13 13 13 15 16 17 18 18 19 20 22 22 22
42 45 48 44 38 42 45 47 44 41 39 36 35 34 30 33 28 28 23 22 21 20 17 16 15 14 13 12 11 12 11 11 11 12 12 12 12 13 14 15 16 17 18 19 19 20 23 24 22
40 45 47 44 43 49 52 59 49 46 44 40 36 35 33 31 30 25 27 24 24 21 19 18 16 15 15 14 14 14 12 13 11 11 12 13 12 13 14 14 15 16 17 20 22 22 23 24 25
38 43 45 44 42 46 50 65 56 49 48 46 44 39 35 32 30 29 26 26 25 24 21 19 17 16 16 14 13 13 12 12 13 12 12 12 12 13 13 13 15 17 19 21 23 24 22 21 21
42 36 40 43 43 49 35 71 58 50 51 48 44 40 38 32 32 30 31 28 26 26 23 21 19 17 16 16 15 14 14 14 15 12 10 11 12 12 12 14 16 18 19 21 21 21 20 18 18
35 34 37 39 44 49 48 52 54 46 56 50 44 41 39 36 33 32 31 29 28 26 25 22 21 19 18 17 17 16 16 15 12 10 10 10 10 11 13 15 17 17 18 18 19 19 20 20 19
30 32 35 37 40 55 52 51 66 51 52 50 42 36 37 36 36 33 31 29 28 25 24 23 20 18 18 18 18 18 15 13 11 10 9 11 11 13 12 13 14 15 16 17 17 18 19 19 20
27 32 38 39 42 53 41 48 59 47 45 47 43 34 34 34 33 32 31 31 29 27 25 23 22 20 18 18 17 16 15 13 11 9 8 9 9 10 11 12 13 14 15 16 17 18 20 21 21
23 25 33 40 40 44 32 41 39 32 37 42 44 38 32 35 37 36 34 31 29 34 24 22 22 20 18 17 16 14 12 11 10 8 6 5 8 10 10 11 12 13 14 16 17 18 20 21 21
18 21 22 29 38 43 39 36 34 31 34 36 43 41 35 32 31 38 38 30 29 29 24 22 21 17 16 14 12 11 10 10 8 4 4 5 6 8 9 10 11 13 15 16 17 18 19 20 21
18 20 23 20 33 36 34 36 36 32 36 36 39 44 36 31 33 37 36 37 33 27 22 22 19 17 14 13 14 11 7 5 7 1 2 5 6 7 8 10 12 13 15 16 17 18 19 21 22
20 18 17 21 17 26 32 29 24 37 39 38 35 37 32 33 31 36 31 27 26 23 20 23 17 16 12 9 7 8 5 4 2 3 4 6 5 7 8 10 12 13 15 16 18 19 20 22 23
21 22 19 14 21 4 29 28 27 32 33 35 31 27 25 29 26 28 27 24 22 22 19 22 14 13 11 6 4 7 3 2 3 4 6 5 7 8 9 11 13 14 16 17 18 19 21 22 24
Wind_Direction
299 311 314 319 269 269 259 274 272 291 305 299 6 276 284 276 294 291 342 282 101 113 114 116 124 107 112 99 103 95 82 59 50 56 55 52 47 39 25 21 20 23 27 28 25 26 25 25 25
297 309 311 302 268 264 264 271 271 279 302 5 342 299 283 273 296 326 13 41 111 106 110 111 101 110 116 113 107 109 91 68 57 62 66 60 49 37 30 27 28 31 32 32 31 28 27 24 24
301 305 283 276 277 260 266 271 273 286 327 302 301 283 291 288 307 34 309 93 103 108 105 99 108 122 128 123 112 108 88 66 56 59 58 51 44 35 27 27 30 32 33 33 32 30 30 28 23
299 306 294 273 279 266 272 292 281 282 284 296 297 294 301 294 322 14 80 101 104 101 100 94 95 114 127 124 113 107 94 64 51 55 54 45 38 32 29 28 29 31 31 33 35 34 31 26 20
300 295 271 273 272 281 277 282 287 277 281 285 296 288 295 317 337 53 106 108 106 104 92 78 71 84 122 123 115 109 94 68 58 64 58 53 46 41 40 35 31 31 36 37 35 32 29 26 23
290 290 271 268 272 278 279 284 282 277 279 283 281 289 296 330 22 99 111 111 110 111 104 77 77 90 109 114 113 109 92 67 59 53 53 44 44 45 42 40 39 37 35 34 33 31 28 25 18
278 277 272 273 274 278 276 291 277 274 277 276 288 283 299 311 358 117 120 115 115 117 119 100 90 96 102 105 106 101 80 66 57 54 47 38 31 29 34 36 42 39 33 25 18 13 11 6 2
280 279 274 275 273 274 282 282 283 270 275 285 288 284 283 280 286 132 131 127 127 130 134 132 112 108 107 108 106 96 85 77 69 59 49 42 41 42 42 40 26 20 14 9 5 5 7 9 7
279 272 270 269 270 276 281 278 281 280 276 278 281 289 294 178 156 164 161 162 169 162 166 191 176 159 122 113 107 97 83 68 60 51 37 39 28 36 39 19 22 15 12 9 11 12 9 14 12
272 271 270 275 273 275 278 274 273 274 276 273 276 283 295 223 210 197 192 196 192 181 180 212 231 230 233 251 132 79 74 72 66 46 38 19 24 29 22 19 13 15 17 18 15 10 6 0 0
282 272 275 272 272 274 276 274 274 270 271 271 272 275 271 235 227 218 222 225 206 192 202 206 229 243 248 259 267 291 329 24 44 45 21 8 10 5 3 7 12 12 10 6 6 0 359 0 2
275 280 274 275 276 274 272 276 274 270 267 277 274 272 261 235 225 223 228 225 216 212 216 220 227 240 252 262 267 279 290 306 356 6 348 340 347 347 352 0 4 2 355 356 356 357 359 0 3
277 279 279 276 275 273 270 269 270 270 269 271 273 269 256 238 245 239 243 237 217 221 219 228 231 241 252 257 267 273 280 287 304 317 319 324 328 335 342 344 345 347 348 350 352 353 354 356 358
286 284 281 279 275 275 272 270 270 270 270 271 270 265 258 250 241 242 238 233 224 224 224 227 230 238 246 257 262 267 273 283 294 303 312 316 320 323 335 336 336 338 342 345 346 347 349 352 356
283 277 277 276 279 274 276 258 262 271 270 270 268 265 259 254 246 236 240 235 219 224 226 229 233 241 246 252 256 263 269 279 288 296 303 307 312 321 322 327 329 333 339 342 344 345 347 350 355
284 279 270 276 272 273 271 255 269 266 267 267 267 264 260 254 250 249 253 248 235 223 218 225 230 237 245 253 253 261 269 279 288 295 305 308 314 319 322 326 328 331 334 336 339 342 344 347 348
279 272 272 275 275 273 261 266 272 269 266 265 265 262 259 256 252 248 248 245 240 234 223 223 223 229 238 247 251 262 272 281 288 292 301 307 311 314 319 322 326 329 333 337 340 342 341 341 344
279 275 274 271 276 276 267 265 269 271 263 261 264 262 257 254 252 246 246 246 243 240 234 222 223 227 232 240 250 262 271 282 288 292 297 304 310 313 318 322 325 328 332 335 338 340 342 341 340
281 278 276 275 277 279 271 270 270 269 265 260 258 258 256 255 254 250 246 242 242 242 237 222 213 215 223 234 241 254 262 274 284 292 299 305 311 314 318 322 326 330 334 338 337 338 337 336 337
280 277 276 281 277 272 271 266 269 269 268 265 259 255 253 255 249 243 243 239 240 237 234 228 220 215 226 237 247 260 261 276 282 291 300 307 311 316 320 323 329 333 335 335 335 333 331 334 333
282 278 277 275 282 278 275 266 265 266 265 265 261 259 254 247 245 242 237 235 236 236 233 230 222 220 230 234 244 256 268 276 281 286 296 305 312 317 322 328 332 333 332 330 332 334 335 337 344
284 285 280 276 275 271 278 263 265 264 265 261 259 254 252 248 245 242 240 235 232 235 235 232 228 225 231 231 239 236 250 260 275 278 291 302 313 321 328 332 333 334 335 335 338 346 347 352 347
291 290 283 279 272 274 272 270 267 266 260 263 259 250 248 246 242 239 239 235 233 234 236 236 234 231 235 236 241 244 257 267 269 276 285 298 314 323 326 330 335 340 343 344 349 350 354 357 356
298 297 288 282 273 267 269 269 265 266 266 261 260 254 246 242 237 240 239 234 231 232 233 236 232 235 236 241 245 248 248 254 257 272 278 296 305 318 331 342 343 353 354 357 4 360 2 0 358
299 294 287 278 268 269 276 272 266 271 271 260 253 251 245 239 230 231 231 231 228 229 231 233 234 239 240 243 248 251 252 252 249 253 263 284 307 324 336 340 347 354 3 10 12 4 1 359 359
306 293 286 282 269 277 275 272 279 277 284 270 258 251 240 231 229 228 231 232 227 231 229 230 234 236 240 245 247 249 242 245 254 251 277 304 313 321 340 354 353 5 15 15 7 4 5 5 6
325 310 310 285 280 279 274 278 284 289 286 277 258 251 238 229 227 224 227 230 229 224 227 231 235 234 240 239 235 238 239 253 227 260 289 324 353 343 357 8 10 17 15 12 7 9 10 10 7
292 290 314 303 289 275 277 274 272 286 289 282 263 244 235 233 234 224 227 232 232 225 230 239 236 232 237 247 253 246 248 235 242 203 41 8 13 11 15 18 16 12 11 9 10 13 9 5 1
228 229 212 271 303 286 284 281 291 286 284 275 260 238 233 234 231 223 221 221 224 230 239 233 237 235 240 244 257 236 206 213 250 42 34 45 18 38 22 20 14 9 12 14 12 9 5 360 357
262 246 221 224 275 276 261 260 312 280 265 253 241 241 237 228 221 215 215 215 220 231 233 234 234 237 235 214 186 222 168 89 31 28 45 25 32 23 24 16 15 17 14 10 4 0 358 356 354